N4JAH Weather Reports


Display with metric or nautical units.
time (UTC)temp
F
wind
direction
speed
MPH
gust
MPH
rain 1hr
in
rain 24hr
in
rain mn
in
humidity
%
barometer
mb
20260507161547 66 18 0.0 2.0 0.00 1.40 1.02 97 1010.0
20260507160026 66 341 0.0 0.0 0.01 1.40 1.02 97 1009.6
20260507154526 65 340 0.0 1.0 0.04 1.40 1.02 97 1009.8
20260507153028 64 340 0.0 0.0 0.04 1.40 1.02 97 1009.7
20260507151534 64 340 0.0 1.0 0.05 1.40 1.02 97 1010.3
20260507150034 64 340 0.0 0.0 0.04 1.39 1.01 97 1010.2
20260507144527 64 340 0.0 0.0 0.01 1.36 0.98 97 1010.1
20260507143038 64 340 0.0 0.0 0.03 1.36 0.98 97 1009.8
20260507141547 64 340 0.0 2.0 0.04 1.35 0.97 97 1010.6
20260507140023 63 336 0.0 0.0 0.15 1.35 0.97 97 1009.4
20260507134526 63 336 0.0 0.0 0.20 1.35 0.97 97 1009.7
20260507133057 63 336 0.0 2.0 0.23 1.33 0.95 97 1010.3
20260507131543 62 142 0.0 0.0 0.31 1.31 0.93 96 1010.0
20260507130023 63 146 0.0 4.0 0.26 1.20 0.82 97 1010.6
20260507124528 63 10 0.0 2.0 0.21 1.14 0.77 96 1010.4
20260507123038 64 10 0.0 2.0 0.16 1.10 0.72 97 1009.4
20260507121534 64 10 0.0 3.0 0.05 0.99 0.61 96 1009.5
20260507120021 65 212 0.0 1.0 0.00 0.94 0.56 97 1008.8
20260507114525 65 212 0.0 2.0 0.02 0.94 0.56 97 1008.6
20260507113035 65 229 0.0 6.0 0.03 0.94 0.56 97 1008.5
20260507111536 65 212 0.0 10.0 0.05 0.94 0.56 97 1007.7
20260507110029 65 220 0.0 4.0 0.10 0.94 0.56 97 1007.6
20260507104529 65 188 0.0 3.0 0.11 0.92 0.54 97 1008.2
20260507103038 65 224 0.0 4.0 0.13 0.91 0.53 97 1008.4
20260507101539 66 251 0.0 4.0 0.11 0.89 0.51 97 1008.4
20260507100025 65 223 0.0 1.0 0.07 0.84 0.46 97 1008.9
20260507094534 65 328 0.0 0.0 0.04 0.81 0.43 97 1009.0
20260507093034 65 328 0.0 0.0 0.01 0.78 0.40 97 1009.3
20260507091537 65 328 0.0 0.0 0.03 0.78 0.40 96 1009.6
20260507090025 65 328 0.0 0.0 0.02 0.77 0.39 96 1009.9
20260507084529 65 328 0.0 0.0 0.02 0.77 0.39 96 1009.8
20260507083035 65 328 0.0 0.0 0.02 0.77 0.39 96 1010.0
20260507081540 65 328 0.0 1.0 0.01 0.75 0.37 96 1010.0
20260507080024 65 328 0.0 0.0 0.02 0.75 0.37 96 1010.2
20260507074530 65 328 0.0 0.0 0.02 0.75 0.37 96 1009.9
20260507073036 65 328 0.0 0.0 0.02 0.75 0.37 96 1009.6
20260507071540 65 328 0.0 0.0 0.01 0.74 0.36 96 1009.5
20260507070039 65 328 0.0 0.0 0.04 0.73 0.35 96 1009.7
20260507064533 65 328 0.0 0.0 0.20 0.73 0.35 96 1010.5
20260507063036 65 328 0.0 0.0 0.30 0.73 0.35 96 1010.9
20260507061537 65 328 0.0 0.0 0.33 0.73 0.35 96 1011.2
20260507060019 65 328 0.0 1.0 0.30 0.68 0.30 96 1011.1
20260507054515 65 329 0.0 0.0 0.14 0.52 0.14 96 1012.1
20260507053016 65 329 0.0 1.0 0.05 0.43 0.05 96 1011.7
20260507051521 65 329 0.0 2.0 0.02 0.40 0.02 96 1011.4
20260507050020 65 262 0.0 0.0 0.00 0.38 0.00 96 1011.4
20260507044511 65 262 0.0 0.0 0.00 0.38 0.38 95 1011.1
20260507043013 65 263 0.0 0.0 0.02 0.38 0.38 95 1011.8
20260507041517 66 263 0.0 0.0 0.02 0.38 0.38 95 1012.0
20260507040004 66 263 0.0 0.0 0.02 0.38 0.38 95 1012.3
20260507034508 66 262 0.0 1.0 0.02 0.37 0.37 94 1012.0
20260507033014 67 351 0.0 0.0 0.02 0.36 0.36 94 1012.1
20260507031605 69 351 0.0 0.0 0.03 0.36 0.36 94 1012.1
20260507030105 69 351 0.0 0.0 0.06 0.36 0.36 94 1012.1
20260507024608 70 351 0.0 0.0 0.06 0.35 0.35 94 1012.0
20260507023049 70 351 0.0 0.0 0.10 0.34 0.34 94 1012.1
20260507021557 70 351 0.0 0.0 0.10 0.33 0.33 94 1011.9
20260507020053 70 351 0.0 2.0 0.09 0.30 0.30 93 1012.0
20260507014554 70 355 0.0 0.0 0.14 0.28 0.28 93 1012.0
20260507013058 70 355 0.0 0.0 0.21 0.24 0.24 92 1011.5
20260507011557 70 355 0.0 0.0 0.23 0.23 0.23 91 1011.5
20260507010045 71 355 0.0 0.0 0.21 0.21 0.21 89 1011.6
20260507004547 73 351 0.0 8.0 0.15 0.15 0.15 86 1011.4
20260507003056 76 84 0.0 0.0 0.02 0.02 0.02 77 1011.0
20260507001602 77 88 0.0 1.0 0.00 0.00 0.00 73 1010.2
20260507000043 79 221 0.0 4.0 0.00 0.00 0.00 69 1010.2
20260506234554 79 226 0.0 3.0 0.00 0.00 0.00 67 1010.0
20260506233051 80 232 0.0 4.0 0.00 0.00 0.00 65 1010.5
20260506231554 80 294 0.0 2.0 0.00 0.00 0.00 64 1010.7
20260506230037 81 222 0.0 3.0 0.00 0.00 0.00 63 1010.5
20260506224543 81 5 0.0 3.0 0.00 0.00 0.00 61 1010.7
20260506223047 82 188 0.0 8.0 0.00 0.00 0.00 61 1010.7
20260506221551 82 199 0.0 8.0 0.00 0.00 0.00 60 1010.4
20260506220038 82 16 0.0 7.0 0.00 0.00 0.00 59 1010.5
20260506214546 82 208 0.0 3.0 0.00 0.00 0.00 59 1010.4
20260506213048 82 210 1.0 10.0 0.00 0.00 0.00 57 1010.7
20260506211552 83 351 1.0 14.0 0.00 0.00 0.00 55 1010.7
20260506210037 82 9 1.0 7.0 0.00 0.00 0.00 55 1011.1
20260506204542 82 219 0.0 5.0 0.00 0.00 0.00 57 1011.3
20260506203040 84 355 0.0 10.0 0.00 0.00 0.00 53 1011.4
20260506201540 85 5 0.0 10.0 0.00 0.00 0.00 54 1011.4
20260506200026 85 355 3.0 10.0 0.00 0.00 0.00 52 1011.9
20260506194531 83 355 1.0 5.0 0.00 0.00 0.00 53 1012.1
20260506193036 84 227 1.0 6.0 0.00 0.00 0.00 51 1012.2
20260506191539 84 227 0.0 6.0 0.00 0.00 0.00 52 1012.4
20260506190025 83 195 0.0 10.0 0.00 0.00 0.00 53 1012.7
20260506184535 83 15 0.0 4.0 0.00 0.00 0.00 53 1013.0
20260506183035 83 117 0.0 7.0 0.00 0.00 0.00 53 1012.8
20260506181538 82 241 0.0 5.0 0.00 0.00 0.00 56 1012.6
20260506180028 82 11 1.0 8.0 0.00 0.00 0.00 55 1012.9
20260506174529 79 233 2.0 8.0 0.00 0.00 0.00 59 1012.8
20260506173047 80 350 0.0 9.0 0.00 0.00 0.00 57 1013.2
20260506171538 79 11 0.0 6.0 0.00 0.00 0.00 60 1013.8
20260506170026 78 141 0.0 6.0 0.00 0.00 0.00 63 1014.0
20260506164534 76 240 0.0 5.0 0.00 0.00 0.00 66 1014.3
20260506163038 76 343 0.0 7.0 0.00 0.00 0.00 66 1014.6